Other Public Products
Issued by NWS Grand Forks, ND

Home | Current Version | Previous Version | Text Only | Print | Product List | Glossary On
Versions: 1 2 3 4 5 6 7 8 9 10 11 12 13 14 15 16 17 18 19 20 21 22 23 24 25 26 27 28 29 30 31 32 33 34 35 36 37 38 39 40 41 42 43 44 45 46 47 48 49 50
000
FPUS83 KFGF 011431
OPUFGF
PRAIRIE TO PINES WEATHER ROUNDUP
NATIONAL WEATHER SERVICE EASTERN NORTH DAKOTA/GRAND FORKS ND
900 AM CDT MON SEP 01 2014

 **SATELLITE DATA USED TO AUGMENT SKY COVER AT AUTOMATED STATIONS**
 *****  WEATHER ACROSS EASTERN NORTH DAKOTA  *****

CITY           SKY/WX    TMP DP  RH WIND       PRES   REMARKS
GRAND FORKS    MOSUNNY   61  56  83 CALM      29.70R
GRAND FORKS AF SUNNY     62  60  95 NW6       29.70S
GRAND CITY NWS   N/A     61 N/A N/A NW3         N/A
BUXTON         NOT AVBL
DEVILS LAKE    SUNNY     59  50  72 W7        29.71S
FARGO          SUNNY     60  56  86 W3        29.71S
WAHPETON ARPT  SUNNY     61  55  82 N7        29.73S
$$

 *****  WEATHER ACROSS CENTRAL AND WESTERN NORTH DAKOTA  *****

CITY           SKY/WX    TMP DP  RH WIND       PRES   REMARKS
JAMESTOWN      SUNNY     61  56  83 W7        29.75S
BISMARCK       SUNNY     58  52  80 W8        29.80R
MINOT          MOSUNNY   57  50  77 NW13      29.77R
MINOT AFB      MOSUNNY   55  54  95 NW15      29.76R
GARRISON         N/A     56  53  90 NW10      29.79R
WILLISTON      SUNNY     53  49  86 SW5       29.84R
DICKINSON      MOSUNNY   55  49  80 W13       29.83R
HETTINGER      SUNNY     54  48  80 W13       29.85S
$$

 *****  OTHER OBSERVATIONS NORTHEAST NORTH DAKOTA  *****

CITY           SKY/WX    TMP DP  RH WIND       PRES   REMARKS
WALHALLA         N/A     63  57  82 NW5       29.68S
LANGDON        FAIR      57  55  94 W5        29.71R
CAVALIER       FAIR      63  57  82 W5        29.68S
GRAFTON        FAIR      59  57  94 W5        29.69S
CANDO          FAIR      57  55  94 NW7       29.73R
FORT TOTTEN    NOT AVBL
ROLLA          FAIR      63  55  77 NW7       29.73S
RUGBY          FAIR      55  55 100 W12       29.74R
 ***** THE ABOVE OBSERVATIONS ARE NON NWS ARE NOT QUALITY
        CONTROLLED AND MAY MIS-REPORT RAIN FOR SNOW...
$$

 *****  OTHER OBSERVATIONS SOUTHEAST NORTH DAKOTA *****

CITY           SKY/WX    TMP DP  RH WIND       PRES   REMARKS
COOPERSTOWN    NOT AVBL
VALLEY CITY    FAIR      61  59  94 NW9       29.74S
OAKES            N/A     63  59  88 NW6       29.76S
GWINNER        SUNNY     64  57  77 W6        29.76R
BUFFALO          N/A     62  56  82 CALM        N/A
WYNDMERE       NOT AVBL
 ***** THE ABOVE OBSERVATIONS ARE NON NWS ARE NOT QUALITY
       CONTROLLED AND MAY MIS-REPORT RAIN FOR SNOW...
$$

  *****  WEATHER ACROSS NORTHERN MINNESOTA  *****

CITY           SKY/WX    TMP DP  RH WIND       PRES   REMARKS
FLAG ISLAND    CLOUDY    59  54  82 NW16G26   29.63R
WARROAD        CLOUDY    59  55  88 W9        29.67R
ROSEAU         MOSUNNY   61  55  82 W10       29.67S
HALLOCK        SUNNY     57  55  94 SW5       29.68S
THF RVR FALLS  PTSUNNY   57  55  94 W6        29.71R
HALSTAD          N/A     62  55  79 NW3         N/A
FOSSTON        PTSUNNY   59  55  88 W8        29.71S
BAUDETTE       CLOUDY    59  56  89 VRB6      29.64R
WASKISH        CLOUDY    61  55  82 W12G18    29.65S
CROOKSTON      FOG       57  55  94 CALM      29.71S VSB 1/2
$$
  *****  WEATHER ACROSS CENTRAL AND WEST MINNESOTA  *****

CITY           SKY/WX    TMP DP  RH WIND       PRES   REMARKS
BEMIDJI        PTSUNNY   60  55  85 W10       29.68S
PARK RAPIDS    MOSUNNY   60  55  83 NW13      29.69S
WADENA         MOSUNNY   59  55  88 NW10      29.70R
DETROIT LAKES  FOG       57  55  94 NW9       29.73R VSB 3/4
MOORHEAD       SUNNY     63  61  94 NW3       29.73S
FERGUS FALLS   SUNNY     61  57  88 NW5       29.72S
ELBOW LAKE     FAIR      60  57  91 NW7       29.72S
MORRIS MN      SUNNY     63  59  88 NW10      29.72R
STAPLES        MOSUNNY   61  55  82 NW13      29.69R
WHEATON        SUNNY     61  55  82 W7        29.75R
$$
  *****  WEATHER ELSEWHERE ACROSS MINNESOTA  *****

CITY           SKY/WX    TMP DP  RH WIND       PRES   REMARKS
DULUTH         CLOUDY    62  58  86 NW10      29.62S
INTRNTL FALLS  CLOUDY    60  58  92 NW7       29.61R
ELY            CLOUDY    59  57  94 W9        29.59F
CLOQUET        CLOUDY    63  61  94 W3        29.63R
BRAINERD       PTSUNNY   62  57  83 NW15      29.68R
HIBBING        CLOUDY    61  56  83 NW9       29.62R
ALEXANDRIA     SUNNY     64  59  83 NW8       29.72R
SAINT CLOUD    MOSUNNY   66  61  84 NW6       29.67R
MINNEAPOLIS    PTSUNNY   68  65  90 W6        29.66R
$$

  *****  WEATHER ACROSS SOUTH DAKOTA  *****

CITY           SKY/WX    TMP DP  RH WIND       PRES   REMARKS
SIOUX FALLS    MOSUNNY   66  62  87 W7        29.78R
BROOKINGS      NOT AVBL
WATERTOWN      SUNNY     64  60  87 NW7       29.76R
HURON          SUNNY     62  58  86 NW8       29.79R
SISSETON         N/A     65  58  78 NW9       29.73R
ABERDEEN       MOSUNNY   60  56  86 W5        29.77S
MITCHELL       SUNNY     63  59  87 NW12      29.81R
PIERRE         SUNNY     58  53  84 W7        29.83S
MOBRIDGE       SUNNY     58  53  84 NW3       29.80R
RAPID CITY     MOSUNNY   60  50  69 W6        29.93R
$$

  *****  SOME WEATHER IN NEARBY STATES *****

CITY           SKY/WX    TMP DP  RH WIND       PRES   REMARKS
GLASGOW MT     MOSUNNY   53  50  89 NW3       29.87R
GREAT FALLS MT CLOUDY    55  39  54 SW12      29.96S
CHEYENNE WY    MOSUNNY   53  46  77 SW9       30.09S
SCOTTSBLUFF NE MOSUNNY   53  50  89 CALM      30.01S
OMAHA NE       MOSUNNY   69  61  75 NW9       29.82R
DES MOINES IA  CLOUDY    72  66  81 SW17      29.77R
DAVENPORT IA   PTSUNNY   70  65  84 SW9       29.78R
CHICAGO IL     CLOUDY    77  68  73 SW21G26   29.74R
EAU CLAIRE WI  LGT RAIN  64  64 100 S6        29.64F
LA CROSSE WI   LGT RAIN  67  64  90 S8        29.67F
$$

  *****  SOME NATIONAL WEATHER *****

CITY           SKY/WX    TMP DP  RH WIND       PRES   REMARKS
LA GUARDIA NY  PTSUNNY   81  71  71 CALM      29.99F
RALEIGH NC     MOSUNNY   81  73  76 SW6       30.11F
ATLANTA GA     PTSUNNY   81  72  74 CALM      30.15S
NEW ORLEANS LA PTSUNNY   85  76  74 SE12      30.04S HX  94
OKLAHOMA CITY  PTSUNNY   80  69  69 SE14G25   29.89R
ALBUQUERQUE NM MOSUNNY   67  41  38 SE8       30.13R
SALT LAKE CITY SUNNY     60  42  51 SE5       30.05R
LOS ANGELES CA CLOUDY    71  63  75 VRB3      29.83R
BOISE ID       CLEAR     51  41  68 CALM      30.08R
SEATTLE WA     MOCLDY    55  52  88 SE7       30.09S
$$

*** WEATHER ACROSS MANITOBA...SASKATCHEWAN AND ONTARIO ***
                ***ONTARIO***

CITY           SKY/WX    TMP DP  RH WIND       PRES   REMARKS
GERALDTON      LGT RAIN  61  61 100 SE6       29.51F FOG
THUNDER BAY    LGT RAIN  63  63 100 W3        29.50S
SIOUX LOOKOUT  LGT RAIN  59  57  94 NW10      29.52S FOG
TORONTO        CLOUDY    70  68  94 S2        29.95S FOG
BIG TROUT LK   FOG       55  54  94 NE3       29.46F VSB 1/8
PICKLE LAKE    DRIZZLE   57  55  94 NW5       29.45S FOG
DRYDEN         PTSUNNY   59  55  88 NW7       29.57R
KENORA         PTSUNNY   59  57  94 NW6       29.61R
$$
                *** MANITOBA***

CITY           SKY/WX    TMP DP  RH WIND       PRES   REMARKS
BRANDON        MOSUNNY   55  52  88 NW10      29.71R
DAUPHIN        SUNNY     57  50  77 W10G17    29.66S
ISLAND LAKE    CLOUDY    57  57 100 CALM      29.55F
PILOT MOUND      N/A     55  54  94 W6          N/A
THE PAS        MOSUNNY   57  52  82 NW9       29.61R
THOMPSON       SUNNY     54  52  94 NW7       29.54S
WINNIPEG       MOSUNNY   59  55  88 W7        29.66S
LYNN LAKE      SUNNY     52  46  82 MISG      29.56F
CHURCHILL      CLOUDY    52  52 100 W5        29.51F
GILLAM         CLOUDY    54  54 100 CALM      29.52F
$$
                ***SASKATCHEWAN***

CITY           SKY/WX    TMP DP  RH WIND       PRES   REMARKS
ESTEVAN        MOSUNNY   54  50  87 W3        29.80S
KINDERSLEY     MOSUNNY   45  41  87 SW3       29.83S
LLOYDMINSTER   MOSUNNY   48  43  81 W12       29.78R
PRINCE ALBERT  PTSUNNY   48  46  93 W8        29.72
REGINA         MOSUNNY   50  48  93 W8        29.80
YORKTON        SUNNY     57  46  67 W12       29.71R


USA.gov is the U.S. government's official web portal to all federal, state and local government web resources and services.